Location: Czekan�w
(50.3488°N, 18.7344°E)
Time: 19:46:17
(UTC+00:00)

Meteor 1-31 Rocket - Pass Details

Date: 17 February 2020
Orbit: 522 x 546 km, 97.6° (Epoch: 30 March)

Event Time Altitude Azimuth Distance (km) Brightness Sun altitude
Rises 04:01:57 0° 8° (N) 2,666 6.5 -18.5°
Reaches altitude 10° 04:04:07 10° 3° (N) 1,773 5.5 -18.1°
Maximum altitude 04:07:46 46° 290° (WNW) 714 2.9 -17.5°
Enters shadow 04:08:36 39° 252° (WSW) 804 3.1 -17.4°
